2019-07-19 00:03:08 r, 18.53m,0000000003Hz,0000134217c,0000000.291s, 035.1C,00002195
2019-07-19 00:13:08 r, 18.51m,0000000003Hz,0000132429c,0000000.287s, 035.1C,00002195
2019-07-19 00:23:08 r, 18.51m,0000000003Hz,0000132367c,0000000.287s, 035.1C,00002195
2019-07-19 00:33:08 r, 18.50m,0000000004Hz,0000130534c,0000000.283s, 034.8C,00002195
2019-07-19 00:43:08 r, 18.48m,0000000003Hz,0000128777c,0000000.279s, 034.8C,00002195
2019-07-19 00:53:08 r, 18.48m,0000000004Hz,0000128340c,0000000.279s, 034.4C,00002195
2019-07-19 01:03:08 r, 18.46m,0000000003Hz,0000126762c,0000000.275s, 034.4C,00002195
2019-07-19 01:13:08 r, 18.46m,0000000004Hz,0000126357c,0000000.274s, 034.4C,00002195
2019-07-19 01:23:08 r, 18.45m,0000000004Hz,0000124820c,0000000.271s, 034.4C,00002195
2019-07-19 01:33:08 r, 18.43m,0000000004Hz,0000123099c,0000000.267s, 034.4C,00002195
2019-07-19 01:43:08 r, 18.43m,0000000003Hz,0000121978c,0000000.265s, 034.1C,00002195
2019-07-19 01:53:08 r, 18.42m,0000000004Hz,0000120940c,0000000.262s, 034.1C,00002195
2019-07-19 02:03:08 r, 18.42m,0000000004Hz,0000120959c,0000000.262s, 034.1C,00002195
2019-07-19 02:13:08 r, 18.41m,0000000004Hz,0000119847c,0000000.260s, 033.8C,00002195
2019-07-19 02:23:08 r, 18.41m,0000000004Hz,0000119996c,0000000.260s, 033.8C,00002195
2019-07-19 02:33:08 r, 18.40m,0000000004Hz,0000119194c,0000000.259s, 033.8C,00002195
2019-07-19 02:43:08 r, 18.39m,0000000004Hz,0000118102c,0000000.256s, 033.5C,00002195
2019-07-19 02:53:08 r, 18.39m,0000000004Hz,0000117735c,0000000.256s, 033.5C,00002195
2019-07-19 03:03:08 r, 18.38m,0000000004Hz,0000117097c,0000000.254s, 033.1C,00002195
2019-07-19 03:13:08 r, 18.39m,0000000004Hz,0000117808c,0000000.256s, 033.1C,00002195
2019-07-19 03:23:08 r, 18.38m,0000000004Hz,0000117142c,0000000.254s, 033.1C,00002195
2019-07-19 03:33:08 r, 18.38m,0000000004Hz,0000116195c,0000000.252s, 032.8C,00002195
2019-07-19 03:43:08 r, 18.36m,0000000004Hz,0000114404c,0000000.248s, 032.8C,00002195
2019-07-19 03:53:08 r, 18.33m,0000000004Hz,0000111476c,0000000.242s, 032.8C,00002195
2019-07-19 04:03:08 r, 18.25m,0000000005Hz,0000103761c,0000000.225s, 032.8C,00002195
2019-07-19 04:13:08 r, 18.08m,0000000006Hz,0000088323c,0000000.192s, 032.5C,00002195
2019-07-19 04:23:08 r, 17.73m,0000000007Hz,0000064211c,0000000.139s, 032.5C,00002195
2019-07-19 04:33:08 r, 17.13m,0000000013Hz,0000037217c,0000000.081s, 032.5C,00002195
2019-07-19 04:43:08 r, 16.20m,0000000029Hz,0000015798c,0000000.034s, 032.5C,00002195
2019-07-19 04:53:08 r, 14.77m,0000000107Hz,0000004219c,0000000.009s, 032.2C,00002195
2019-07-19 05:03:08 r, 13.19m,0000000473Hz,0000000000c,0000000.000s, 032.2C,00002195
2019-07-19 05:13:08 r, 11.64m,0000001964Hz,0000000000c,0000000.000s, 032.2C,00002195
2019-07-19 05:23:08 r, 10.14m,0000007865Hz,0000000000c,0000000.000s, 032.2C,00002195
2019-07-19 05:33:08 r, 08.81m,0000026739Hz,0000000000c,0000000.000s, 031.9C,00002195
2019-07-19 05:43:08 r, 07.81m,0000066706Hz,0000000000c,0000000.000s, 031.9C,00002195
2019-07-19 05:53:08 r, 07.08m,0000131428Hz,0000000000c,0000000.000s, 031.9C,00002195
2019-07-19 06:03:08 r, 06.57m,0000210832Hz,0000000000c,0000000.000s, 031.9C,00002195
2019-07-19 06:13:08 r, 06.20m,0000294912Hz,0000000000c,0000000.000s, 031.9C,00002195
2019-07-19 06:23:08 r, 05.94m,0000374865Hz,0000000000c,0000000.000s, 031.9C,00002195
2019-07-19 06:33:08 r, 00.00m,0000452410Hz,0000000000c,0000000.000s, 032.2C,00002195
2019-07-19 06:43:08 r, 00.00m,0000564619Hz,0000000000c,0000000.000s, 032.2C,00002195
2019-07-19 06:53:08 r, 00.00m,0000564621Hz,0000000000c,0000000.000s, 032.8C,00002195
2019-07-19 07:03:08 r, 00.00m,0000564665Hz,0000000000c,0000000.000s, 032.8C,00002195
2019-07-19 07:13:08 r, 00.00m,0000564591Hz,0000000000c,0000000.000s, 032.8C,00002195
2019-07-19 07:23:08 r, 00.00m,0000564616Hz,0000000000c,0000000.000s, 032.8C,00002195
2019-07-19 07:33:08 r, 00.00m,0000564716Hz,0000000000c,0000000.000s, 033.1C,00002195
2019-07-19 07:43:08 r, 00.00m,0000564698Hz,0000000000c,0000000.000s, 033.5C,00002195
2019-07-19 07:53:08 r, 00.00m,0000564780Hz,0000000000c,0000000.000s, 033.8C,00002195
2019-07-19 08:03:08 r, 00.00m,0000564889Hz,0000000000c,0000000.000s, 034.4C,00002195
2019-07-19 08:13:08 r, 00.00m,0000565017Hz,0000000000c,0000000.000s, 035.7C,00002195
2019-07-19 08:23:08 r, 00.00m,0000565140Hz,0000000000c,0000000.000s, 037.0C,00002195
2019-07-19 08:33:08 r, 00.00m,0000565200Hz,0000000000c,0000000.000s, 038.0C,00002195
2019-07-19 08:43:08 r, 00.00m,0000565184Hz,0000000000c,0000000.000s, 038.3C,00002195
2019-07-19 08:53:08 r, 00.00m,0000565296Hz,0000000000c,0000000.000s, 039.3C,00002195
2019-07-19 09:03:08 r, 00.00m,0000565391Hz,0000000000c,0000000.000s, 039.6C,00002195
2019-07-19 09:13:08 r, 00.00m,0000565442Hz,0000000000c,0000000.000s, 040.6C,00002195
2019-07-19 09:23:08 r, 00.00m,0000565482Hz,0000000000c,0000000.000s, 041.2C,00002195
2019-07-19 09:33:08 r, 00.00m,0000565741Hz,0000000000c,0000000.000s, 043.8C,00002195
2019-07-19 09:43:08 r, 00.00m,0000565668Hz,0000000000c,0000000.000s, 044.4C,00002195
2019-07-19 09:53:08 r, 00.00m,0000565825Hz,0000000000c,0000000.000s, 045.4C,00002195
2019-07-19 10:03:09 r, 00.00m,0000565763Hz,0000000000c,0000000.000s, 045.4C,00002195
2019-07-19 10:13:08 r, 00.00m,0000565761Hz,0000000000c,0000000.000s, 045.1C,00002195
2019-07-19 10:23:09 r, 00.00m,0000565804Hz,0000000000c,0000000.000s, 045.7C,00002195
2019-07-19 10:33:09 r, 00.00m,0000565952Hz,0000000000c,0000000.000s, 047.7C,00002195
2019-07-19 10:43:09 r, 00.00m,0000566082Hz,0000000000c,0000000.000s, 049.3C,00002195
2019-07-19 10:53:09 r, 00.00m,0000566222Hz,0000000000c,0000000.000s, 051.5C,00002195
2019-07-19 11:03:09 r, 00.00m,0000565920Hz,0000000000c,0000000.000s, 049.3C,00002195
2019-07-19 11:13:09 r, 00.00m,0000565884Hz,0000000000c,0000000.000s, 048.3C,00002195
2019-07-19 11:23:09 r, 00.00m,0000566053Hz,0000000000c,0000000.000s, 049.9C,00002195
2019-07-19 11:33:09 r, 00.00m,0000566084Hz,0000000000c,0000000.000s, 051.5C,00002195
2019-07-19 11:43:09 r, 00.00m,0000566175Hz,0000000000c,0000000.000s, 051.8C,00002195
2019-07-19 11:53:09 r, 00.00m,0000566237Hz,0000000000c,0000000.000s, 052.5C,00002195
2019-07-19 12:03:09 r, 00.00m,0000566289Hz,0000000000c,0000000.000s, 053.5C,00002195
2019-07-19 12:13:09 r, 00.00m,0000566272Hz,0000000000c,0000000.000s, 054.1C,00002195
2019-07-19 12:23:09 r, 00.00m,0000566236Hz,0000000000c,0000000.000s, 054.1C,00002195
2019-07-19 12:33:09 r, 00.00m,0000566318Hz,0000000000c,0000000.000s, 054.1C,00002195
2019-07-19 12:43:09 r, 00.00m,0000566239Hz,0000000000c,0000000.000s, 054.7C,00002195
2019-07-19 12:53:09 r, 00.00m,0000566213Hz,0000000000c,0000000.000s, 055.1C,00002195
2019-07-19 13:03:09 r, 00.00m,0000566217Hz,0000000000c,0000000.000s, 055.7C,00002195
2019-07-19 13:13:09 r, 00.00m,0000566223Hz,0000000000c,0000000.000s, 056.0C,00002195
2019-07-19 13:23:09 r, 00.00m,0000566324Hz,0000000000c,0000000.000s, 056.4C,00002195
2019-07-19 13:33:09 r, 00.00m,0000566201Hz,0000000000c,0000000.000s, 056.0C,00002195
2019-07-19 13:43:09 r, 00.00m,0000566180Hz,0000000000c,0000000.000s, 056.0C,00002195
2019-07-19 13:53:09 r, 00.00m,0000566297Hz,0000000000c,0000000.000s, 056.0C,00002195
2019-07-19 14:03:09 r, 00.00m,0000566248Hz,0000000000c,0000000.000s, 055.7C,00002195
2019-07-19 14:13:09 r, 00.00m,0000566280Hz,0000000000c,0000000.000s, 055.4C,00002195
2019-07-19 14:23:09 r, 00.00m,0000566190Hz,0000000000c,0000000.000s, 055.7C,00002195
2019-07-19 14:33:09 r, 00.00m,0000566186Hz,0000000000c,0000000.000s, 056.0C,00002195
2019-07-19 14:43:09 r, 00.00m,0000566199Hz,0000000000c,0000000.000s, 055.4C,00002195
2019-07-19 14:53:09 r, 00.00m,0000566137Hz,0000000000c,0000000.000s, 055.4C,00002195
2019-07-19 15:03:09 r, 00.00m,0000566178Hz,0000000000c,0000000.000s, 055.4C,00002195
2019-07-19 15:13:09 r, 00.00m,0000566174Hz,0000000000c,0000000.000s, 055.4C,00002195
2019-07-19 15:23:09 r, 00.00m,0000566115Hz,0000000000c,0000000.000s, 055.4C,00002195
2019-07-19 15:33:09 r, 00.00m,0000566078Hz,0000000000c,0000000.000s, 054.7C,00002195
2019-07-19 15:43:09 r, 00.00m,0000566027Hz,0000000000c,0000000.000s, 054.4C,00002195
2019-07-19 15:53:09 r, 00.00m,0000566021Hz,0000000000c,0000000.000s, 054.1C,00002195
2019-07-19 16:03:09 r, 00.00m,0000566025Hz,0000000000c,0000000.000s, 053.8C,00002195
2019-07-19 16:13:09 r, 00.00m,0000566018Hz,0000000000c,0000000.000s, 053.8C,00002195
2019-07-19 16:23:09 r, 00.00m,0000565947Hz,0000000000c,0000000.000s, 053.5C,00002195
2019-07-19 16:33:09 r, 00.00m,0000565940Hz,0000000000c,0000000.000s, 053.1C,00002195
2019-07-19 16:43:09 r, 00.00m,0000565901Hz,0000000000c,0000000.000s, 052.8C,00002195
2019-07-19 16:53:09 r, 00.00m,0000565866Hz,0000000000c,0000000.000s, 052.5C,00002195
2019-07-19 17:03:09 r, 00.00m,0000565781Hz,0000000000c,0000000.000s, 051.5C,00002195
2019-07-19 17:13:09 r, 00.00m,0000565754Hz,0000000000c,0000000.000s, 051.2C,00002195
2019-07-19 17:23:09 r, 00.00m,0000565674Hz,0000000000c,0000000.000s, 050.9C,00002195
2019-07-19 17:33:09 r, 00.00m,0000565655Hz,0000000000c,0000000.000s, 050.6C,00002195
2019-07-19 17:43:09 r, 00.00m,0000565624Hz,0000000000c,0000000.000s, 049.6C,00002195
2019-07-19 17:53:09 r, 00.00m,0000565600Hz,0000000000c,0000000.000s, 049.3C,00002195
2019-07-19 18:03:09 r, 00.00m,0000565536Hz,0000000000c,0000000.000s, 048.9C,00002195
2019-07-19 18:13:09 r, 00.00m,0000565546Hz,0000000000c,0000000.000s, 048.6C,00002195
2019-07-19 18:23:09 r, 00.00m,0000565563Hz,0000000000c,0000000.000s, 048.3C,00002195
2019-07-19 18:33:09 r, 00.00m,0000565449Hz,0000000000c,0000000.000s, 047.3C,00002195
2019-07-19 18:43:09 r, 00.00m,0000565312Hz,0000000000c,0000000.000s, 046.7C,00002195
2019-07-19 18:53:09 r, 00.00m,0000565249Hz,0000000000c,0000000.000s, 046.0C,00002195
2019-07-19 19:03:09 r, 00.00m,0000565102Hz,0000000000c,0000000.000s, 045.1C,00002195
2019-07-19 19:13:09 r, 00.00m,0000565117Hz,0000000000c,0000000.000s, 044.4C,00002195
2019-07-19 19:23:09 r, 00.00m,0000565077Hz,0000000000c,0000000.000s, 043.5C,00002195
2019-07-19 19:33:09 r, 00.00m,0000565047Hz,0000000000c,0000000.000s, 042.8C,00002195
2019-07-19 19:43:09 r, 00.00m,0000564997Hz,0000000000c,0000000.000s, 042.5C,00002195
2019-07-19 19:53:09 r, 00.00m,0000564910Hz,0000000000c,0000000.000s, 041.9C,00002195
2019-07-19 20:03:09 r, 00.00m,0000564878Hz,0000000000c,0000000.000s, 041.2C,00002195
2019-07-19 20:13:09 r, 00.00m,0000564886Hz,0000000000c,0000000.000s, 039.9C,00002195
2019-07-19 20:23:09 r, 00.00m,0000525619Hz,0000000000c,0000000.000s, 039.0C,00002195
2019-07-19 20:33:09 r, 00.00m,0000464129Hz,0000000000c,0000000.000s, 038.6C,00002195
2019-07-19 20:43:09 r, 05.89m,0000389121Hz,0000000000c,0000000.000s, 038.0C,00002195
2019-07-19 20:53:09 r, 06.15m,0000307924Hz,0000000000c,0000000.000s, 037.7C,00002195
2019-07-19 21:03:09 r, 06.52m,0000220144Hz,0000000000c,0000000.000s, 037.3C,00002195
2019-07-19 21:13:09 r, 07.04m,0000137087Hz,0000000000c,0000000.000s, 037.0C,00002195
2019-07-19 21:23:09 r, 07.76m,0000070259Hz,0000000000c,0000000.000s, 036.7C,00002195
2019-07-19 21:33:09 r, 08.74m,0000028533Hz,0000000000c,0000000.000s, 036.4C,00002195
2019-07-19 21:43:09 r, 09.95m,0000009292Hz,0000000000c,0000000.000s, 036.0C,00002195
2019-07-19 21:53:09 r, 11.35m,0000002575Hz,0000000000c,0000000.000s, 035.7C,00002195
2019-07-19 22:03:09 r, 12.83m,0000000659Hz,0000000000c,0000000.000s, 035.7C,00002195
2019-07-19 22:13:09 r, 14.44m,0000000149Hz,0000000000c,0000000.000s, 035.4C,00002195
2019-07-19 22:23:09 r, 16.00m,0000000035Hz,0000013156c,0000000.029s, 035.1C,00002195
2019-07-19 22:33:09 r, 17.06m,0000000013Hz,0000034876c,0000000.076s, 034.8C,00002195
2019-07-19 22:43:09 r, 17.73m,0000000007Hz,0000064020c,0000000.139s, 034.8C,00002195
2019-07-19 22:53:09 r, 18.12m,0000000005Hz,0000091942c,0000000.200s, 034.4C,00002195
2019-07-19 23:03:09 r, 18.35m,0000000004Hz,0000113927c,0000000.247s, 034.4C,00002195
2019-07-19 23:13:09 r, 18.44m,0000000004Hz,0000123812c,0000000.269s, 034.1C,00002195
2019-07-19 23:23:09 r, 18.48m,0000000003Hz,0000128665c,0000000.279s, 034.1C,00002195
2019-07-19 23:33:09 r, 18.51m,0000000003Hz,0000131467c,0000000.285s, 033.8C,00002195
2019-07-19 23:43:09 r, 18.50m,0000000004Hz,0000130517c,0000000.283s, 033.8C,00002195
2019-07-19 23:53:09 r, 18.49m,0000000004Hz,0000129521c,0000000.281s, 033.5C,00002195
